Date String (YYYY-MM-DD hh:mm:ss) UTC,Instrument flags,Ambient pressure (hPa),Sample flow (lpm),Bypass flow (lpm),Sample temperature (°C),Ambient temperature (°C),ASC tube jacket temperature (°C),LED temperature (°C),Box temperature (°C),Sample RH (%),Span deviation,Mass concentration (μg/m³),Mass concentration (μg/m³),Mass concentration (μg/m³)
DateTimeUTC,F1_M11,P_M11,Q1_M11,Q2_M11,T1_M11,T2_M11,T3_M11,T4_M11,T5_M11,U1_M11,ZSPAN_M11,X0_M11,X2_M11,X1_M11
2021-12-18 10:00:00,,0830.5,4.99,0.00,22.1,21.3,00.0,31.2,23.6,08.3,0000.0,0007.11,0002.88,0002.15
2021-12-18 10:01:00,,0830.4,5.01,0.00,22.1,21.7,00.0,31.2,23.7,08.3,0000.0,0007.98,0002.87,0002.16
2021-12-18 10:02:00,,0830.4,4.99,0.00,22.2,22.4,00.0,31.3,24.0,08.2,0000.0,0007.74,0002.82,0002.14
2021-12-18 10:03:00,,0830.4,5.01,0.00,22.3,23.0,00.0,31.3,24.2,08.2,0000.0,0008.09,0002.82,0002.13
2021-12-18 10:04:00,,0830.4,4.99,0.00,22.4,22.9,00.0,31.3,24.3,08.1,0000.0,0008.39,0002.82,0002.11
2021-12-18 10:05:00,,0830.3,5.00,0.00,22.4,22.6,00.0,31.3,24.2,08.1,0000.0,0009.06,0002.87,0002.10
2021-12-18 10:06:00,,0830.3,5.01,0.00,22.4,22.4,00.0,31.3,24.1,08.1,0000.0,0009.14,0002.86,0002.09
2021-12-18 10:07:00,,0830.3,5.00,0.00,22.4,22.1,00.0,31.3,24.0,08.1,0000.0,0009.35,0002.91,0002.11
2021-12-18 10:08:00,,0830.3,5.00,0.00,22.3,22.0,00.0,31.3,24.0,08.1,0000.0,0009.47,0002.94,0002.13
2021-12-18 10:09:00,,0830.2,5.00,0.00,22.3,21.8,00.0,31.3,23.9,08.1,0000.0,0009.83,0002.97,0002.14
2021-12-18 10:10:00,,0830.3,5.00,0.00,22.3,21.7,00.0,31.3,23.8,08.1,0000.0,0010.00,0002.96,0002.15
2021-12-18 10:11:00,,0830.3,5.00,0.00,22.2,21.5,00.0,31.3,23.8,08.1,0000.0,0009.70,0002.92,0002.16
2021-12-18 10:12:00,,0830.2,4.99,0.00,22.2,21.4,00.0,31.3,23.7,08.2,0000.0,0008.76,0002.95,0002.15
2021-12-18 10:13:00,,0830.2,4.99,0.00,22.2,21.6,00.0,31.3,23.7,08.2,0000.0,0008.95,0003.00,0002.17
2021-12-18 10:14:00,,0830.1,5.00,0.00,22.3,22.3,00.0,31.3,24.0,08.2,0000.0,0008.65,0002.98,0002.17
2021-12-18 10:15:00,,0830.2,5.00,0.00,22.4,23.0,00.0,31.3,24.3,08.1,0000.0,0008.46,0002.99,0002.17
2021-12-18 10:16:00,,0830.2,5.00,0.00,22.5,23.1,00.0,31.3,24.4,08.1,0000.0,0007.70,0002.96,0002.15
2021-12-18 10:17:00,,0830.2,4.99,0.00,22.5,22.8,00.0,31.4,24.3,08.1,0000.0,0007.44,0002.95,0002.13
2021-12-18 10:18:00,,0830.2,5.01,0.00,22.5,22.6,00.0,31.4,24.2,08.1,0000.0,0008.02,0002.94,0002.10
2021-12-18 10:19:00,,0830.2,4.99,0.00,22.5,22.3,00.0,31.4,24.1,08.1,0000.0,0008.38,0002.92,0002.08
2021-12-18 10:20:00,,0830.1,5.01,0.00,22.4,22.1,00.0,31.4,24.1,08.1,0000.0,0007.97,0002.86,0002.07
2021-12-18 10:21:00,,0830.1,4.99,0.00,22.4,21.9,00.0,31.4,24.0,08.2,0000.0,0007.64,0002.86,0002.07
2021-12-18 10:22:00,,0830.1,5.01,0.00,22.4,21.7,00.0,31.3,23.9,08.2,0000.0,0008.06,0002.88,0002.07
2021-12-18 10:23:00,,0830.1,5.01,0.00,22.3,21.6,00.0,31.3,23.9,08.2,0000.0,0008.11,0002.90,0002.08
2021-12-18 10:24:00,,0830.1,4.99,0.00,22.3,21.5,00.0,31.3,23.9,08.2,0000.0,0008.18,0002.98,0002.09
2021-12-18 10:25:00,,0830.1,5.01,0.00,22.2,21.5,00.0,31.3,23.8,08.2,0000.0,0008.78,0003.06,0002.10
2021-12-18 10:26:00,,0830.0,5.00,0.00,22.3,22.1,00.0,31.3,24.0,08.2,0000.0,0008.87,0003.09,0002.10
2021-12-18 10:27:00,,0830.1,5.01,0.00,22.4,22.9,00.0,31.4,24.3,08.2,0000.0,0008.91,0003.10,0002.11
2021-12-18 10:28:00,,0830.1,5.00,0.00,22.6,23.1,00.0,31.4,24.4,08.1,0000.0,0008.76,0003.10,0002.12
2021-12-18 10:29:00,,0830.1,4.99,0.00,22.6,22.9,00.0,31.4,24.4,08.1,0000.0,0008.72,0003.12,0002.13
2021-12-18 10:30:00,,0830.1,5.00,0.00,22.6,22.6,00.0,31.4,24.3,08.2,0000.0,0008.45,0003.14,0002.14
2021-12-18 10:31:00,,0830.0,5.00,0.00,22.5,22.4,00.0,31.4,24.2,08.2,0000.0,0008.76,0003.25,0002.16
2021-12-18 10:32:00,,0830.0,5.00,0.00,22.5,22.1,00.0,31.4,24.1,08.2,0000.0,0008.79,0003.25,0002.15
2021-12-18 10:33:00,,0829.9,5.00,0.00,22.4,21.9,00.0,31.4,24.0,08.3,0000.0,0008.73,0003.25,0002.15
2021-12-18 10:34:00,,0830.0,5.00,0.00,22.4,21.8,00.0,31.4,23.9,08.3,0000.0,0009.63,0003.26,0002.15
2021-12-18 10:35:00,,0830.0,4.99,0.00,22.3,21.6,00.0,31.4,23.8,08.3,0000.0,0009.81,0003.25,0002.15
2021-12-18 10:36:00,,0829.9,5.01,0.00,22.3,21.5,00.0,31.4,23.8,08.4,0000.0,0009.28,0003.20,0002.13
2021-12-18 10:37:00,,0829.9,5.00,0.00,22.2,21.4,00.0,31.3,23.7,08.4,0000.0,0009.60,0003.19,0002.14
2021-12-18 10:38:00,,0829.9,5.01,0.00,22.2,21.9,00.0,31.3,23.8,08.5,0000.0,0009.81,0003.18,0002.16
2021-12-18 10:39:00,,0829.9,4.99,0.00,22.4,22.7,00.0,31.4,24.1,08.5,0000.0,0009.95,0003.22,0002.22
2021-12-18 10:40:00,,0830.0,4.99,0.00,22.5,23.3,00.0,31.4,24.4,08.4,0000.0,0009.47,0003.24,0002.27
2021-12-18 10:41:00,,0829.9,5.00,0.00,22.6,23.3,00.0,31.4,24.5,08.3,0000.0,0009.35,0003.28,0002.30
2021-12-18 10:42:00,,0829.9,5.00,0.00,22.6,23.0,00.0,31.4,24.4,08.3,0000.0,0009.90,0003.25,0002.31
2021-12-18 10:43:00,,0829.8,5.00,0.00,22.6,22.7,00.0,31.5,24.3,08.3,0000.0,0009.93,0003.27,0002.33
2021-12-18 10:44:00,,0829.9,5.00,0.00,22.5,22.4,00.0,31.5,24.1,08.2,0000.0,0009.69,0003.28,0002.34
2021-12-18 10:45:00,,0829.9,5.00,0.00,22.5,22.1,00.0,31.4,24.0,08.2,0000.0,0008.63,0003.27,0002.35
2021-12-18 10:46:00,,0829.9,5.00,0.00,22.4,21.9,00.0,31.4,24.0,08.2,0000.0,0008.55,0003.25,0002.37
2021-12-18 10:47:00,,0829.8,5.00,0.00,22.3,21.8,00.0,31.4,23.9,08.2,0000.0,0008.42,0003.25,0002.39
2021-12-18 10:48:00,,0829.9,5.02,0.00,22.3,21.6,00.0,31.4,23.8,08.2,0000.0,0008.16,0003.23,0002.41
2021-12-18 10:49:00,,0829.9,4.99,0.00,22.2,21.5,00.0,31.4,23.7,08.2,0000.0,0007.95,0003.22,0002.40
2021-12-18 10:50:00,,0829.8,5.00,0.00,22.1,21.3,00.0,31.3,23.6,08.2,0000.0,0007.91,0003.20,0002.38
2021-12-18 10:51:00,,0829.9,5.00,0.00,22.1,21.6,00.0,31.3,23.7,08.2,0000.0,0008.14,0003.20,0002.37
2021-12-18 10:52:00,,0829.8,5.01,0.00,22.2,22.3,00.0,31.3,23.9,08.1,0000.0,0008.48,0003.17,0002.37
2021-12-18 10:53:00,,0829.8,4.99,0.00,22.4,23.0,00.0,31.4,24.2,08.1,0000.0,0008.28,0003.18,0002.39
2021-12-18 10:54:00,,0829.9,4.99,0.00,22.5,23.3,00.0,31.4,24.4,08.0,0000.0,0008.24,0003.15,0002.39
2021-12-18 10:55:00,,0829.8,5.00,0.00,22.6,23.0,00.0,31.4,24.3,08.0,0000.0,0008.19,0003.14,0002.41
2021-12-18 10:56:00,,0829.8,5.00,0.00,22.5,22.6,00.0,31.4,24.2,08.0,0000.0,0008.30,0003.13,0002.43
2021-12-18 10:57:00,,0829.8,5.00,0.00,22.5,22.3,00.0,31.4,24.1,08.0,0000.0,0008.45,0003.14,0002.45
2021-12-18 10:58:00,,0829.8,5.00,0.00,22.4,22.1,00.0,31.4,24.0,08.0,0000.0,0008.52,0003.15,0002.45
2021-12-18 10:59:00,,0829.7,5.00,0.00,22.3,21.9,00.0,31.4,23.9,08.1,0000.0,0008.39,0003.21,0002.48
